Park Rapids, MN

11:46 PM CST on February 19, 2017 (GMT -0600)
Park Rapids Municipal

Weather History for KPKD - March, 2014

Change the Weather History Date:

Sunday, March 23, 2014

  Actual Average Record
Temperature  
Mean Temperature 4 °F -  
Max Temperature 18 °F 38 °F 68 °F (2003)
Min Temperature -9 °F 16 °F -24 °F (1974)
Degree Days  
Heating Degree Days 60    
Moisture  
Dew Point -4 °F    
Average Humidity 76    
Maximum Humidity 96    
Minimum Humidity 54    
Precipitation  
Precipitation 0.00 in - - ()
Sea Level Pressure  
Sea Level Pressure 30.47 in    
Wind  
Wind Speed 3 mph (West)    
Max Wind Speed 10 mph    
Max Gust Speed -    
Visibility 10 miles    
Events      
Averages and records for this station are not official NWS values.
T = Trace of Precipitation, MM = Missing Value Source: NWS Daily Summary

Daily Weather History Graph

Daily Weather History Graph

Search for Another Location

Airport or City:

Trip Planner

Search our weather history database for the weather conditions in past years. The results will help you decide how hot, cold, wet, or windy it might be!

Date:

Astronomy

Mar. 23, 2014 Rise Set
Actual Time 7:17 AM CDT 7:37 PM CDT
Civil Twilight 6:46 AM CDT 8:07 PM CDT
Nautical Twilight 6:11 AM CDT 8:43 PM CDT
Astronomical Twilight 5:34 AM CDT 9:20 PM CDT
Moon 2:13 AM CDT (3/23) 11:41 AM CDT (3/23)
Length of Visible Light 13h 20m
Length of Day
12h 19m
Waning Gibbous, 54% of the Moon is Illuminated
Mar 23
Waning Gibbous
Mar 23
Last Quarter
Mar 30
New
Apr 7
First Quarter
Apr 15
Full

Hourly Weather History & Observations

Time (CDT) Temp. Windchill Dew Point Humidity Pressure Visibility Wind Dir Wind Speed Gust Speed Precip Events Conditions
12:53 AM -2.9 °F -13.3 °F -6.0 °F 87% 30.57 in 10.0 mi WNW 4.6 mph - N/A   Clear
1:53 AM -2.9 °F -11.2 °F -6.0 °F 87% 30.56 in 10.0 mi WNW 3.5 mph - N/A   Partly Cloudy
2:53 AM -2.0 °F - -6.0 °F 83% 30.56 in 10.0 mi Calm Calm - N/A   Clear
3:53 AM -6.0 °F - -7.1 °F 95% 30.55 in 10.0 mi Calm Calm - N/A   Partly Cloudy
4:53 AM -8.0 °F - -11.9 °F 83% 30.54 in 10.0 mi Calm Calm - N/A   Clear
5:40 AM -7.1 °F - -13.0 °F 75% 30.41 in 10.0 mi Calm Calm - N/A   Mostly Cloudy
5:49 AM -7.6 °F - -11.2 °F 84% 30.41 in 10.0 mi Calm Calm - N/A   Mostly Cloudy
5:53 AM -7.1 °F - -11.0 °F 83% 30.54 in 10.0 mi Calm Calm - N/A   Overcast
6:34 AM -7.1 °F - -11.0 °F 83% 30.41 in 8.0 mi Calm Calm - N/A   Mostly Cloudy
6:43 AM -7.1 °F - -9.9 °F 87% 30.41 in 9.0 mi Calm Calm - N/A   Overcast
6:53 AM -7.1 °F - -11.9 °F 79% 30.54 in 9.0 mi Calm Calm - N/A   Overcast
7:01 AM -8.0 °F - -11.0 °F 86% 30.41 in 9.0 mi Calm Calm - N/A   Mostly Cloudy
7:11 AM -7.1 °F - -11.9 °F 79% 30.41 in 10.0 mi Calm Calm - N/A   Scattered Clouds
7:53 AM -9.0 °F - -13.0 °F 83% 30.55 in 10.0 mi Calm Calm - N/A   Clear
8:53 AM -5.1 °F - -6.0 °F 96% 30.55 in 9.0 mi Calm Calm - N/A   Clear
9:53 AM 1.9 °F -5.6 °F -0.0 °F 91% 30.54 in 10.0 mi West 3.5 mph - N/A   Clear
10:53 AM 8.1 °F -2.0 °F 1.9 °F 76% 30.53 in 10.0 mi WSW 5.8 mph - N/A   Clear
11:53 AM 10.9 °F -2.6 °F -0.0 °F 61% 30.52 in 10.0 mi WNW 10.4 mph - N/A   Clear
12:53 PM 12.9 °F 0.7 °F 1.9 °F 62% 30.51 in 10.0 mi WNW 9.2 mph - N/A   Clear
1:53 PM 15.1 °F 3.3 °F 3.0 °F 59% 30.49 in 10.0 mi West 9.2 mph - N/A   Partly Cloudy
2:53 PM 16.0 °F 6.3 °F 3.0 °F 57% 30.46 in 10.0 mi West 6.9 mph - N/A   Scattered Clouds
3:53 PM 17.1 °F 8.7 °F 3.9 °F 56% 30.44 in 10.0 mi West 5.8 mph - N/A   Scattered Clouds
4:53 PM 18.0 °F 8.7 °F 3.9 °F 54% 30.42 in 10.0 mi West 6.9 mph - N/A   Clear
5:53 PM 17.1 °F 6.6 °F 5.0 °F 59% 30.41 in 10.0 mi West 8.1 mph - N/A   Partly Cloudy
6:53 PM 16.0 °F 5.3 °F 5.0 °F 62% 30.41 in 10.0 mi West 8.1 mph - N/A   Clear
7:53 PM 10.9 °F 2.9 °F 1.9 °F 67% 30.41 in 10.0 mi WNW 4.6 mph - N/A   Clear
8:53 PM 10.0 °F - 1.9 °F 70% 30.40 in 10.0 mi North - - N/A   Clear
9:53 PM 8.1 °F - 1.9 °F 76% 30.40 in 10.0 mi Calm Calm - N/A   Clear
10:53 PM 3.0 °F - -0.9 °F 84% 30.40 in 10.0 mi Calm Calm - N/A   Clear
11:53 PM 1.9 °F - -2.0 °F 83% 30.39 in 10.0 mi Calm Calm - N/A   Clear